Location: Newark
(22.3000°N, 114.2000°E)
Time: 21:10:48
(UTC+00:00)

N. Korean satellite - Visible Passes

Search period start: 15 October 2019 00:00
Search period end: 25 October 2019 00:00
Orbit: 455 x 508 km, 97.2° (Epoch: 14 October)

Date Brightness Start Highest point End Pass type
(mag) Time Alt. Az. Time Alt. Az. Time Alt. Az.
15 Oct 10.3 21:13:43 10° ENE 21:15:05 12° E 21:16:27 10° ESE visible
17 Oct 9.5 10:19:20 10° SSW 10:22:05 23° W 10:24:50 10° NW visible
17 Oct 7.6 21:54:22 10° NNE 21:57:55 53° E 22:01:31 10° S visible
18 Oct 9.6 21:29:47 10° NE 21:32:37 21° E 21:35:29 10° SSE visible
20 Oct 10.3 10:38:10 10° WSW 10:39:36 12° W 10:41:02 10° WNW visible
21 Oct 8.3 21:46:40 10° NNE 21:50:08 40° E 21:53:37 10° S visible
22 Oct 10.0 21:22:22 10° NE 21:24:49 17° E 21:27:16 10° SE visible
24 Oct 9.9 10:29:33 10° SW 10:31:43 16° W 10:33:53 10° WNW visible
